N5SRF Weather Reports


Display with metric or nautical units.
time (UTC)temp
F
wind
direction
speed
MPH
gust
MPH
rain 1hr
in
rain 24hr
in
rain mn
in
humidity
%
barometer
mb
20260906121838 74 176 0.0 0.0 0.00 0.00 0.00 99 1017.7
20260906121334 73 176 0.0 0.0 0.00 0.00 0.00 99 1017.6
20260906120830 73 176 0.0 0.0 0.00 0.00 0.00 99 1017.7
20260906120326 73 176 0.0 0.0 0.00 0.00 0.00 99 1017.7
20260906115822 73 176 0.0 0.0 0.00 0.00 0.00 99 1017.7
20260906115317 73 176 0.0 0.0 0.00 0.00 0.00 99 1017.6
20260906114816 73 176 0.0 0.0 0.00 0.00 0.00 99 1017.4
20260906114311 73 176 0.0 0.0 0.00 0.00 0.00 99 1017.3
20260906113806 73 176 0.0 0.0 0.00 0.00 0.00 99 1017.2
20260906113305 73 176 0.0 0.0 0.00 0.00 0.00 99 1017.2
20260906112800 73 175 0.0 0.0 0.00 0.00 0.00 99 1017.4
20260906112251 73 176 0.0 0.0 0.00 0.00 0.00 99 1017.0
20260906111751 73 175 0.0 0.0 0.00 0.00 0.00 99 1016.9
20260906111250 73 176 0.0 0.0 0.00 0.00 0.00 99 1016.8
20260906110745 73 176 0.0 0.0 0.00 0.00 0.00 99 1016.9
20260906110241 73 176 0.0 0.0 0.00 0.00 0.00 99 1016.8
20260906105740 73 174 0.0 0.0 0.00 0.00 0.00 99 1016.8
20260906105230 73 176 0.0 0.0 0.00 0.00 0.00 99 1016.8
20260906104725 73 176 0.0 0.0 0.00 0.00 0.00 99 1016.9
20260906104225 73 176 0.0 0.0 0.00 0.00 0.00 99 1016.9
20260906103722 73 176 0.0 0.0 0.00 0.00 0.00 99 1016.7
20260906103217 73 176 0.0 0.0 0.00 0.00 0.00 99 1016.5
20260906102712 73 175 0.0 0.0 0.00 0.00 0.00 99 1016.9
20260906102211 73 176 0.0 0.0 0.00 0.00 0.00 99 1016.5
20260906101706 73 176 0.0 0.0 0.00 0.00 0.00 99 1016.5
20260906101201 73 176 0.0 0.0 0.00 0.00 0.00 99 1016.6
20260906100656 73 176 0.0 0.0 0.00 0.00 0.00 99 1016.5
20260906100151 74 176 0.0 0.0 0.00 0.00 0.00 99 1016.4
20260906095646 74 176 0.0 0.0 0.00 0.00 0.00 99 1016.3
20260906095141 74 176 0.0 0.0 0.00 0.00 0.00 99 1016.4
20260906094640 74 176 0.0 0.0 0.00 0.00 0.00 99 1016.6
20260906094136 74 176 0.0 0.0 0.00 0.00 0.00 99 1016.6
20260906093632 74 176 0.0 0.0 0.00 0.00 0.00 99 1016.3
20260906093132 74 176 0.0 0.0 0.00 0.00 0.00 99 1016.5
20260906092627 74 176 0.0 0.0 0.00 0.00 0.00 99 1016.4
20260906092122 74 175 0.0 0.0 0.00 0.00 0.00 99 1016.6
20260906091618 74 176 0.0 0.0 0.00 0.00 0.00 99 1016.6
20260906091115 74 176 0.0 0.0 0.00 0.00 0.00 99 1016.5
20260906090614 74 176 0.0 0.0 0.00 0.00 0.00 99 1016.5
20260906090109 74 176 0.0 0.0 0.00 0.00 0.00 99 1016.6
20260906085608 74 176 0.0 0.0 0.00 0.00 0.00 99 1016.6
20260906085102 74 176 0.0 0.0 0.00 0.00 0.00 99 1016.5
20260906084557 74 176 0.0 0.0 0.00 0.00 0.00 99 1016.5
20260906084055 74 176 0.0 0.0 0.00 0.00 0.00 99 1016.8
20260906083551 74 176 0.0 0.0 0.00 0.00 0.00 99 1016.6
20260906083051 74 176 0.0 0.0 0.00 0.00 0.00 99 1016.7
20260906082547 74 176 0.0 0.0 0.00 0.00 0.00 99 1016.8
20260906082043 74 176 0.0 0.0 0.00 0.00 0.00 99 1016.7
20260906081538 74 176 0.0 0.0 0.00 0.00 0.00 99 1016.9
20260906081033 74 176 0.0 0.0 0.00 0.00 0.00 99 1016.7
20260906080530 74 176 0.0 0.0 0.00 0.00 0.00 99 1016.7
20260906080025 74 190 0.0 0.0 0.00 0.00 0.00 99 1016.7
20260906075520 74 197 0.0 0.0 0.00 0.00 0.00 99 1016.6
20260906075015 74 197 0.0 0.0 0.00 0.00 0.00 99 1016.6
20260906074509 74 197 0.0 0.0 0.00 0.00 0.00 99 1016.8
20260906074008 74 201 1.0 1.0 0.00 0.00 0.00 99 1016.8
20260906073503 74 193 0.0 0.0 0.00 0.00 0.00 99 1016.8
20260906072959 74 171 0.0 0.0 0.00 0.00 0.00 99 1016.7
20260906072454 74 181 0.0 0.0 0.00 0.00 0.00 99 1016.7
20260906071949 74 178 0.0 0.0 0.00 0.00 0.00 99 1016.9
20260906071446 74 179 0.0 0.0 0.00 0.00 0.00 99 1016.6
20260906070940 74 173 0.0 0.0 0.00 0.00 0.00 99 1016.7
20260906070431 74 181 0.0 0.0 0.00 0.00 0.00 99 1016.8
20260906065926 74 181 0.0 0.0 0.00 0.00 0.00 99 1016.8
20260906065420 74 181 0.0 0.0 0.00 0.00 0.00 99 1017.0
20260906064917 74 181 0.0 0.0 0.00 0.00 0.00 99 1017.0
20260906064413 73 180 0.0 0.0 0.00 0.00 0.00 99 1016.9
20260906063913 74 179 0.0 0.0 0.00 0.00 0.00 99 1016.9
20260906063408 74 209 0.0 0.0 0.00 0.00 0.00 99 1017.0
20260906062903 74 210 0.0 0.0 0.00 0.00 0.00 99 1016.7
20260906062402 74 210 0.0 0.0 0.00 0.00 0.00 99 1016.9
20260906061858 74 210 0.0 0.0 0.00 0.00 0.00 99 1016.7
20260906061354 74 210 0.0 0.0 0.00 0.00 0.00 99 1017.2
20260906060854 74 210 0.0 0.0 0.00 0.00 0.00 99 1017.2
20260906060352 74 210 0.0 0.0 0.00 0.00 0.00 99 1016.8
20260906055847 74 210 0.0 0.0 0.00 0.10 0.10 99 1016.8
20260906055343 74 210 0.0 0.0 0.00 0.10 0.10 99 1016.9
20260906054838 74 210 0.0 0.0 0.00 0.10 0.10 99 1016.8
20260906054332 74 210 0.0 0.0 0.00 0.10 0.10 99 1016.9
20260906053829 74 210 0.0 0.0 0.00 0.10 0.10 99 1016.8
20260906053325 74 210 0.0 0.0 0.00 0.10 0.10 99 1016.8
20260906052820 74 210 0.0 0.0 0.00 0.10 0.10 99 1016.8
20260906052316 74 210 0.0 0.0 0.00 0.10 0.10 99 1016.7
20260906051813 74 211 0.0 0.0 0.00 0.10 0.10 99 1016.8
20260906051312 74 211 0.0 0.0 0.00 0.10 0.10 99 1016.8
20260906050808 74 211 0.0 0.0 0.00 0.10 0.10 99 1016.7
20260906050303 74 210 0.0 0.0 0.00 0.10 0.10 99 1016.5
20260906045801 74 210 0.0 0.0 0.00 0.10 0.10 99 1016.6
20260906045256 74 211 0.0 0.0 0.00 0.10 0.10 99 1016.8
20260906044753 74 211 0.0 0.0 0.00 0.10 0.10 99 1016.8
20260906044247 74 211 0.0 0.0 0.00 0.10 0.10 99 1016.6
20260906043743 74 211 0.0 1.0 0.00 0.10 0.10 99 1016.5
20260906043239 74 211 0.0 0.0 0.00 0.10 0.10 99 1016.5
20260906042738 74 211 0.0 0.0 0.00 0.10 0.10 99 1016.4
20260906042237 74 211 0.0 0.0 0.00 0.10 0.10 99 1016.2
20260906041733 75 211 0.0 0.0 0.00 0.10 0.10 99 1016.3
20260906041228 75 211 1.0 1.0 0.00 0.10 0.10 99 1016.2
20260906040724 75 211 0.0 0.0 0.00 0.10 0.10 99 1016.3
20260906040219 75 211 0.0 0.0 0.00 0.10 0.10 99 1016.4
20260906035715 75 210 1.0 1.0 0.00 0.10 0.10 99 1016.1
20260906035210 75 203 0.0 1.0 0.00 0.10 0.10 99 1016.4
20260906034705 75 204 0.0 0.0 0.00 0.10 0.10 99 1016.4
20260906034200 75 201 0.0 1.0 0.00 0.10 0.10 99 1016.5
20260906033656 75 211 0.0 1.0 0.00 0.10 0.10 99 1016.6
20260906033156 75 161 0.0 0.0 0.00 0.10 0.10 99 1016.7
20260906032651 75 161 0.0 1.0 0.00 0.10 0.10 99 1016.9
20260906032146 75 161 0.0 0.0 0.00 0.10 0.10 99 1016.6
20260906031642 75 161 0.0 0.0 0.00 0.10 0.10 99 1016.8
20260906031137 75 160 1.0 1.0 0.00 0.10 0.10 99 1016.7
20260906030636 75 159 0.0 0.0 0.00 0.10 0.10 99 1016.6
20260906030132 75 171 0.0 0.0 0.00 0.10 0.10 99 1016.4
20260906025631 75 168 0.0 1.0 0.00 0.10 0.10 99 1016.6
20260906025131 75 179 0.0 1.0 0.00 0.10 0.10 99 1016.4
20260906024625 75 169 0.0 0.0 0.00 0.10 0.10 99 1016.5
20260906024119 75 170 0.0 0.0 0.00 0.10 0.10 99 1016.4
20260906023615 75 170 0.0 0.0 0.00 0.10 0.10 99 1016.5
20260906023115 75 170 0.0 0.0 0.00 0.10 0.10 99 1016.3
20260906022610 75 170 0.0 0.0 0.00 0.10 0.10 99 1016.3
20260906022106 75 170 0.0 0.0 0.00 0.10 0.10 99 1016.2
20260906021556 75 170 0.0 0.0 0.00 0.10 0.10 99 1016.2
20260906021055 76 170 0.0 0.0 0.00 0.10 0.10 99 1016.5
20260906020554 76 170 0.0 0.0 0.00 0.10 0.10 99 1016.4
20260906020054 76 170 0.0 0.0 0.00 0.10 0.10 99 1016.4
20260906015554 75 170 0.0 0.0 0.00 0.10 0.10 99 1016.1
20260906015048 75 170 0.0 0.0 0.00 0.10 0.10 99 1016.2
20260906014548 75 170 0.0 0.0 0.00 0.10 0.10 99 1016.2
20260906014044 75 170 0.0 0.0 0.00 0.10 0.10 99 1016.1
20260906013539 75 170 0.0 0.0 0.00 0.10 0.10 99 1016.1
20260906013034 75 170 0.0 0.0 0.00 0.10 0.10 99 1016.0
20260906012529 75 170 0.0 0.0 0.00 0.10 0.10 99 1015.9
20260906012029 75 170 0.0 0.0 0.00 0.10 0.10 99 1016.0
20260906011525 75 170 0.0 0.0 0.00 0.10 0.10 99 1016.0
20260906011025 75 169 0.0 0.0 0.00 0.10 0.10 99 1016.0
20260906010520 75 169 0.0 0.0 0.00 0.10 0.10 99 1016.0
20260906010017 75 169 0.0 0.0 0.00 0.10 0.10 99 1016.0
20260906005516 75 169 0.0 0.0 0.00 0.10 0.10 99 1016.2
20260906005015 76 169 0.0 0.0 0.00 0.10 0.10 99 1016.0
20260906004509 76 169 0.0 0.0 0.00 0.10 0.10 99 1016.0
20260906004004 76 169 0.0 0.0 0.00 0.10 0.10 99 1016.2
20260906003459 76 169 0.0 0.0 0.00 0.10 0.10 99 1016.4
20260906002955 76 169 0.0 0.0 0.00 0.10 0.10 99 1016.2
20260906002454 76 169 0.0 0.0 0.05 0.10 0.10 99 1016.1
20260906001950 76 171 0.0 0.0 0.05 0.10 0.10 99 1016.2
20260906001445 76 171 0.0 0.0 0.00 0.09 0.09 99 1016.5
20260906000940 76 171 0.0 0.0 0.00 0.09 0.09 99 1016.3
20260906000435 76 171 0.0 1.0 0.00 0.09 0.09 99 1016.5
20260905235924 76 167 0.0 1.0 0.00 0.09 0.09 99 1016.4
20260905235419 76 167 0.0 1.0 0.00 0.09 0.09 99 1016.3
20260905234914 76 152 0.0 0.0 0.00 0.09 0.09 99 1016.6
20260905234409 76 149 1.0 1.0 0.00 0.09 0.09 99 1016.6
20260905233904 76 151 0.0 1.0 0.00 0.09 0.09 99 1016.5
20260905233359 76 94 0.0 1.0 0.00 0.09 0.09 99 1016.7
20260905232858 76 103 1.0 2.0 0.00 0.09 0.09 99 1016.6
20260905232354 76 171 0.0 0.0 0.00 0.09 0.09 99 1016.6
20260905231849 76 149 1.0 1.0 0.00 0.09 0.09 99 1016.8
20260905231344 76 164 0.0 1.0 0.00 0.09 0.09 99 1016.8
20260905230841 76 170 0.0 0.0 0.00 0.09 0.09 99 1016.8
20260905230339 76 169 0.0 0.0 0.07 0.09 0.09 99 1016.6
20260905225838 76 169 0.0 0.0 0.07 0.09 0.09 99 1016.7
20260905225333 76 171 0.0 0.0 0.05 0.08 0.08 99 1016.6
20260905224827 76 172 0.0 1.0 0.12 0.08 0.08 99 1016.6
20260905224323 77 162 1.0 1.0 0.07 0.07 0.07 99 1016.8
20260905223818 77 161 1.0 1.0 0.05 0.06 0.06 99 1016.9
20260905223316 77 164 0.0 1.0 0.12 0.06 0.06 99 1016.9
20260905222811 77 166 0.0 1.0 0.12 0.05 0.05 98 1017.1
20260905222309 77 176 1.0 1.0 0.12 0.04 0.04 98 1017.0
20260905221806 77 117 0.0 1.0 0.12 0.03 0.03 97 1017.0
20260905221302 78 157 0.0 0.0 0.12 0.02 0.02 95 1016.7
20260905220757 78 149 1.0 1.0 0.07 0.01 0.01 94 1016.7
20260905220254 78 168 0.0 0.0 0.00 0.00 0.00 94 1016.8
20260905215753 78 114 3.0 5.0 0.00 0.00 0.00 93 1017.0
20260905215249 78 129 1.0 2.0 0.00 0.00 0.00 92 1016.9
20260905214744 78 142 1.0 2.0 0.00 0.00 0.00 92 1016.7
20260905214240 78 93 3.0 5.0 0.00 0.00 0.00 91 1016.7
20260905213735 78 78 2.0 3.0 0.00 0.00 0.00 91 1016.6
20260905213231 79 83 4.0 5.0 0.00 0.00 0.00 90 1016.5
20260905212726 79 83 5.0 11.0 0.00 0.00 0.00 90 1016.7
20260905212225 80 50 3.0 5.0 0.00 0.00 0.00 89 1017.0
20260905211725 80 88 7.0 10.0 0.00 0.00 0.00 85 1016.9
20260905211221 81 89 5.0 7.0 0.00 0.00 0.00 85 1016.7
20260905210718 82 130 4.0 8.0 0.00 0.00 0.00 85 1016.8
20260905210217 83 71 7.0 9.0 0.00 0.00 0.00 85 1016.8
20260905205711 85 99 2.0 2.0 0.00 0.00 0.00 83 1016.9
20260905205210 86 27 1.0 2.0 0.00 0.00 0.00 77 1016.7
20260905204705 87 159 0.0 0.0 0.00 0.00 0.00 77 1016.4
20260905204200 87 115 0.0 1.0 0.00 0.00 0.00 76 1016.6
20260905203700 88 123 1.0 1.0 0.00 0.00 0.00 73 1016.5
20260905203155 88 155 0.0 0.0 0.00 0.00 0.00 71 1016.8
20260905202651 89 154 1.0 1.0 0.00 0.00 0.00 69 1016.3
20260905202146 89 89 1.0 1.0 0.00 0.00 0.00 69 1016.6
20260905201642 90 82 4.0 6.0 0.00 0.00 0.00 66 1016.6
20260905201136 90 107 2.0 2.0 0.00 0.00 0.00 68 1016.4
20260905200632 90 100 3.0 3.0 0.00 0.00 0.00 68 1016.3
20260905200126 91 84 2.0 3.0 0.00 0.00 0.00 66 1016.3
20260905195620 91 117 2.0 2.0 0.00 0.00 0.00 66 1016.3
20260905195115 91 122 3.0 3.0 0.00 0.00 0.00 66 1016.3
20260905194614 92 79 4.0 5.0 0.00 0.00 0.00 64 1016.3
20260905194114 92 159 1.0 1.0 0.00 0.00 0.00 64 1016.4
20260905193609 92 114 1.0 1.0 0.00 0.00 0.00 66 1016.4
20260905193104 92 85 1.0 2.0 0.00 0.00 0.00 65 1016.4
20260905192559 92 88 2.0 2.0 0.00 0.00 0.00 69 1016.4
20260905192056 91 141 1.0 1.0 0.00 0.00 0.00 67 1016.4
20260905191554 92 82 3.0 3.0 0.00 0.00 0.00 67 1016.6
20260905191054 92 131 1.0 1.0 0.00 0.00 0.00 67 1016.7
20260905190551 92 115 3.0 5.0 0.00 0.00 0.00 69 1016.4
20260905190046 91 53 1.0 2.0 0.00 0.00 0.00 68 1016.7
20260905185544 91 100 2.0 2.0 0.00 0.00 0.00 67 1017.0
20260905185039 92 67 1.0 1.0 0.00 0.00 0.00 66 1017.1
20260905184539 93 53 1.0 2.0 0.00 0.00 0.00 65 1017.2
20260905184037 91 131 1.0 1.0 0.00 0.00 0.00 67 1017.4
20260905183532 92 95 3.0 3.0 0.00 0.00 0.00 65 1017.5
20260905183027 93 227 1.0 1.0 0.00 0.00 0.00 65 1017.1
20260905182526 93 163 1.0 1.0 0.00 0.00 0.00 67 1017.5
20260905182021 92 350 3.0 3.0 0.00 0.00 0.00 66 1017.3
20260905181516 92 93 5.0 6.0 0.00 0.00 0.00 66 1017.3
20260905181015 91 218 1.0 2.0 0.00 0.00 0.00 69 1017.3
20260905180510 91 125 1.0 2.0 0.00 0.00 0.00 72 1017.3
20260905180006 91 160 1.0 1.0 0.00 0.00 0.00 69 1017.6
20260905175505 92 91 1.0 2.0 0.00 0.00 0.00 68 1017.8
20260905175001 92 309 3.0 5.0 0.00 0.00 0.00 68 1017.7
20260905174455 91 347 3.0 3.0 0.00 0.00 0.00 70 1017.8
20260905173951 91 130 0.0 1.0 0.00 0.00 0.00 71 1017.7
20260905173447 90 118 1.0 1.0 0.00 0.00 0.00 73 1018.1
20260905172943 92 95 4.0 5.0 0.00 0.00 0.00 74 1018.1
20260905172441 92 110 2.0 2.0 0.00 0.00 0.00 71 1018.2
20260905171936 91 55 3.0 3.0 0.00 0.00 0.00 74 1018.5
20260905171433 90 240 0.0 1.0 0.00 0.00 0.00 74 1018.2
20260905170929 90 268 3.0 3.0 0.00 0.00 0.00 76 1018.4
20260905170425 91 225 1.0 2.0 0.00 0.00 0.00 74 1018.4
20260905165924 92 332 2.0 2.0 0.00 0.00 0.00 73 1018.6
20260905165419 92 323 3.0 3.0 0.00 0.00 0.00 73 1018.5
20260905164915 92 184 0.0 1.0 0.00 0.00 0.00 71 1018.6
20260905164414 92 111 1.0 1.0 0.00 0.00 0.00 70 1018.7
20260905163909 91 219 1.0 1.0 0.00 0.00 0.00 70 1018.8
20260905163406 91 233 1.0 2.0 0.00 0.00 0.00 71 1018.7
20260905162902 90 203 2.0 2.0 0.00 0.00 0.00 74 1018.8
20260905162402 90 148 1.0 1.0 0.00 0.00 0.00 72 1018.7
20260905161857 90 273 2.0 2.0 0.00 0.00 0.00 75 1018.6
20260905161356 90 10 2.0 3.0 0.00 0.00 0.00 76 1018.7
20260905160854 89 156 1.0 1.0 0.00 0.00 0.00 77 1018.9
20260905160349 89 264 3.0 3.0 0.00 0.00 0.00 77 1018.8
20260905155843 88 193 0.0 0.0 0.00 0.00 0.00 76 1018.7
20260905155342 88 176 0.0 1.0 0.00 0.00 0.00 80 1018.8
20260905154837 89 262 2.0 2.0 0.00 0.00 0.00 79 1019.0
20260905154332 89 210 1.0 1.0 0.00 0.00 0.00 79 1019.2
20260905153828 89 187 0.0 0.0 0.00 0.00 0.00 81 1019.0
20260905153324 89 250 3.0 3.0 0.00 0.00 0.00 81 1018.9
20260905152823 88 45 3.0 3.0 0.00 0.00 0.00 82 1018.7
20260905152322 87 182 2.0 2.0 0.00 0.00 0.00 86 1019.0
20260905151817 86 175 0.0 0.0 0.00 0.00 0.00 89 1018.9
20260905151313 85 184 0.0 0.0 0.00 0.00 0.00 89 1018.6
20260905150808 84 191 0.0 0.0 0.00 0.00 0.00 90 1018.8
20260905150307 84 155 0.0 0.0 0.00 0.00 0.00 90 1018.8
20260905145805 84 191 0.0 0.0 0.00 0.00 0.00 92 1018.9
20260905145259 83 178 0.0 0.0 0.00 0.00 0.00 93 1019.0
20260905144757 82 136 0.0 0.0 0.00 0.00 0.00 93 1018.8
20260905144254 82 163 0.0 0.0 0.00 0.00 0.00 94 1018.9
20260905143753 82 161 0.0 0.0 0.00 0.00 0.00 95 1018.8
20260905143253 82 153 0.0 0.0 0.00 0.00 0.00 96 1018.8
20260905142751 81 167 0.0 0.0 0.00 0.00 0.00 97 1018.9
20260905142245 82 215 0.0 0.0 0.00 0.00 0.00 99 1018.7
20260905141742 81 227 0.0 0.0 0.00 0.00 0.00 99 1018.6
20260905141237 80 227 0.0 0.0 0.00 0.00 0.00 99 1018.8
20260905140727 80 227 0.0 0.0 0.00 0.00 0.00 99 1018.6
20260905140227 80 227 0.0 0.0 0.00 0.00 0.00 99 1018.6
20260905135720 79 227 0.0 0.0 0.00 0.00 0.00 99 1018.9
20260905135217 79 229 0.0 0.0 0.00 0.00 0.00 99 1018.7
20260905134715 79 226 0.0 0.0 0.00 0.00 0.00 99 1018.6
20260905134210 79 226 0.0 0.0 0.00 0.00 0.00 99 1018.8
20260905133705 79 225 0.0 0.0 0.00 0.00 0.00 99 1018.7
20260905133200 78 225 0.0 0.0 0.00 0.00 0.00 99 1018.8
20260905132658 78 226 0.0 0.0 0.00 0.00 0.00 99 1018.7
20260905132154 77 226 0.0 0.0 0.00 0.00 0.00 99 1018.5
20260905131643 77 226 0.0 0.0 0.00 0.00 0.00 99 1018.5
20260905131138 77 226 0.0 0.0 0.00 0.00 0.00 99 1018.7
20260905130633 76 226 0.0 0.0 0.00 0.00 0.00 99 1018.7
20260905130133 76 227 0.0 0.0 0.00 0.00 0.00 99 1018.6
20260905125627 76 227 0.0 0.0 0.00 0.00 0.00 99 1018.5
20260905125122 76 228 0.0 0.0 0.00 0.00 0.00 99 1018.4
20260905124613 75 227 0.0 0.0 0.00 0.00 0.00 99 1018.2
20260905124109 75 227 0.0 0.0 0.00 0.00 0.00 99 1018.3
20260905123603 75 227 0.0 0.0 0.00 0.00 0.00 99 1018.2
20260905123101 75 228 0.0 0.0 0.00 0.00 0.00 99 1018.2
20260905122554 75 228 0.0 0.0 0.00 0.00 0.00 99 1018.0